OBJECT G, 44885

Orbit data source: Space-Track

You're viewing an Uncataloged Satellite

Recently launched and/or uncataloged satellites may have evolving metadata. Metadata may include but not limited to: Owner, Maufacturer, Bus, Motor, and Mission.

OBJECT G, 44885 is a satellite in SSO that was launched on Fri, 20 Dec 2019 UTC via a CHANG ZHENG 4B launch vehicle from the Taiyaun Space Center, China (TSC). Unknown objects in Earth's orbit typically refer to objects detected orbiting the Earth but have not yet been identified or cataloged. These objects could be anything from previously untracked satellites, spent rocket stages, debris from satellite collisions, or even natural meteoroids temporarily captured by Earth's gravity.

Loading next visibility...
Identifier
44885, 2019-093G
Orbit
SSO
Country
Flag of TBDTBD
Related business
Flag of BRFederal University of Santa Catarina (BR)
Manufacturer
UFSC
Mission
Operational Amateur Technology
Bus & Motor
CUBESAT 1U, Unknown motor
Mass
1 kg wet, 1 kg dry
Launch date (UTC)
2019-12-20 (6 years ago)
Launch vehicle
CHANG ZHENG 4B
Launch site
Taiyaun Space Center, China (TSC)
Object type
Unknown
Shape & HBR
Box, Unknown HBR
Radar Cross Section
0.015 m², Small (<0.1 m²)

Expand to show TLE details & history
Last TLE update: 8 hours ago

TLE from 8 hours ago
0 OBJECT G
1 44885U 19093G   25311.24347925  .00008518  00000-0  67884-3 0  9997
2 44885  97.8075  39.2824 0011963  82.1986 278.0595 15.00539637319322
Epoch: 2025-11-07T05:50Z
TLE epoch observation values (Epoch: 2025-11-07T05:50:36.607Z)
Latitude
-0.00002°
Longitude
-95.06036°
Altitude
567.128 km
Speed
7.578 km/s
True Right ascension
02h 37m 07s
True Declination
0° 00' 00"
Sunlit
Object was in full shadow at epoch
Visualization orbit readout
Latitude
Unknown
Longitude
Unknown
Altitude
Unknown
Speed
Unknown
Apparent Right ascension
Unknown
Apparent Declination
Unknown
Sunlit
N/A
Visualization observer readout
Local Sidereal Time
10:09:12
Azimuth
Unknown
Elevation
Unknown
Doppler factor
Unknown
Orbital elements
Apogee altitude
570.543 km
Perigee altitude
553.938 km
Semi-major axis
6,940.377 km
Eccentricity
0.0012
Inclination
97.8075°
RAAN
39.2824°
Arg. of periapsis
82.1986°
True anomaly
277.92374°
Mean anomaly
278.0595°
Eccentric anomaly
277.99162°
Mean motion
3.75378 °/min
Orbital period
95.9 mins
BSTAR
0.00067884
Loading maneuver chart data...
Computing Atmospheric mass density...
Loading historical data...
Loading historical data...
Loading historical data...
Loading historical data...
Loading historical data...
Loading historical data...
Loading historical data...

Documentation

Showing up to 5 results
|